DW6936 Weather Reports


Display with metric or nautical units.
time (UTC)temp
F
wind
direction
speed
MPH
gust
MPH
rain 1hr
in
rain 24hr
in
rain mn
in
humidity
%
barometer
mb
20171023090822 43 50 2.0 3.0 0.00 0.02 0.00 94 1032.6
20171023085852 43 48 0.0 3.0 0.00 0.02 0.00 94 1032.5
20171023084851 43 48 0.0 2.0 0.00 0.02 0.00 94 1032.3
20171023083821 44 48 0.0 2.0 0.00 0.02 0.00 94 1032.1
20171023082821 44 45 1.0 1.0 0.00 0.02 0.00 94 1031.8
20171023081821 44 45 0.0 0.0 0.00 0.02 0.00 93 1031.7
20171023080820 44 45 0.0 3.0 0.00 0.02 0.00 94 1031.6
20171023075820 44 45 0.0 4.0 0.00 0.02 0.00 94 1031.4
20171023074850 44 46 0.0 3.0 0.00 0.03 0.00 93 1031.3
20171023073819 44 29 0.0 3.0 0.00 0.04 0.00 92 1031.2
20171023072849 44 23 0.0 0.0 0.00 0.04 0.00 92 1031.1
20171023071849 45 23 0.0 1.0 0.00 0.04 0.00 91 1030.6
20171023070849 45 23 0.0 5.0 0.00 0.04 0.00 92 1030.4
20171023065848 45 77 0.0 2.0 0.00 0.04 0.00 91 1030.4
20171023064848 46 77 1.0 3.0 0.00 0.04 0.04 89 1030.4
20171023063818 46 77 2.0 3.0 0.00 0.04 0.04 88 1030.3
20171023062818 47 198 0.0 0.0 0.00 0.04 0.04 86 1030.0
20171023061847 48 198 0.0 1.0 0.00 0.04 0.04 85 1030.0
20171023060847 49 198 0.0 2.0 0.00 0.04 0.04 85 1030.0
20171023055847 50 198 0.0 5.0 0.00 0.04 0.04 86 1029.9
20171023054846 50 196 3.0 5.0 0.00 0.04 0.04 87 1029.6
20171023053846 49 156 2.0 6.0 0.00 0.04 0.04 89 1029.4
20171023052846 48 154 3.0 7.0 0.00 0.04 0.04 91 1029.5
20171023051846 47 113 4.0 6.0 0.00 0.04 0.04 90 1029.2
20171023050846 47 125 0.0 2.0 0.00 0.04 0.04 87 1029.0
20171023045845 48 137 1.0 2.0 0.00 0.04 0.04 86 1028.7
20171023044845 49 141 2.0 2.0 0.00 0.04 0.04 85 1028.6
20171023043844 50 141 0.0 3.0 0.00 0.04 0.04 85 1028.5
20171023042844 50 144 3.0 5.0 0.00 0.04 0.04 85 1028.3
20171023041844 51 197 4.0 6.0 0.00 0.04 0.04 86 1028.2
20171023040844 54 181 3.0 7.0 0.00 0.04 0.04 80 1028.1
20171023035843 54 183 2.0 5.0 0.00 0.04 0.04 79 1028.0
20171023034843 54 168 1.0 5.0 0.00 0.04 0.04 80 1027.8
20171023033843 52 201 2.0 6.0 0.00 0.04 0.04 81 1027.7
20171023032843 52 194 4.0 5.0 0.00 0.05 0.04 81 1027.6
20171023031843 52 183 2.0 5.0 0.00 0.05 0.04 80 1027.4
20171023030842 53 200 2.0 10.0 0.00 0.05 0.04 78 1027.1
20171023025842 53 191 10.0 13.0 0.00 0.05 0.04 78 1026.7
20171023024841 53 194 5.0 12.0 0.00 0.05 0.04 78 1026.4
20171023023841 53 201 9.0 13.0 0.00 0.05 0.04 79 1026.2
20171023022841 53 207 4.0 13.0 0.00 0.05 0.04 78 1025.9
20171023021841 53 196 7.0 16.0 0.00 0.05 0.04 78 1025.8
20171023020840 53 235 7.0 14.0 0.00 0.06 0.04 78 1025.6
20171023015840 53 215 7.0 12.0 0.00 0.06 0.04 78 1025.5
20171023014840 53 214 7.0 14.0 0.00 0.06 0.04 79 1025.4
20171023013840 53 210 8.0 12.0 0.00 0.07 0.04 80 1025.1
20171023012839 53 206 4.0 12.0 0.00 0.07 0.04 80 1025.0
20171023011840 53 194 9.0 12.0 0.00 0.08 0.04 79 1024.8
20171023010839 53 212 10.0 10.0 0.00 0.10 0.04 80 1024.4
20171023005838 53 216 5.0 10.0 0.00 0.11 0.04 81 1024.5
20171023004838 54 210 7.0 8.0 0.00 0.12 0.04 81 1024.4
20171023003838 54 202 5.0 8.0 0.00 0.13 0.04 82 1024.2
20171023002838 54 191 6.0 12.0 0.00 0.14 0.04 81 1024.0
20171023001837 54 209 5.0 12.0 0.00 0.15 0.04 81 1024.0
20171023000837 54 226 8.0 13.0 0.00 0.16 0.04 80 1023.6
20171022235837 54 221 7.0 13.0 0.00 0.16 0.04 80 1023.9
20171022234836 54 193 10.0 12.0 0.01 0.16 0.04 80 1023.7
20171022233836 55 196 12.0 14.0 0.01 0.17 0.04 80 1023.3
20171022232836 54 206 7.0 13.0 0.01 0.18 0.04 80 1023.1
20171022231836 54 208 4.0 12.0 0.01 0.19 0.04 80 1023.3
20171022230835 54 207 8.0 13.0 0.01 0.20 0.04 80 1023.3
20171022225835 54 200 8.0 14.0 0.01 0.21 0.04 80 1022.9
20171022224835 55 210 7.0 13.0 0.00 0.21 0.03 80 1022.8
20171022223834 55 165 7.0 14.0 0.00 0.22 0.03 79 1022.3
20171022222834 55 196 5.0 11.0 0.00 0.23 0.03 80 1022.1
20171022221834 55 164 5.0 10.0 0.01 0.24 0.03 80 1021.9
20171022220834 55 185 3.0 11.0 0.01 0.25 0.03 80 1021.8
20171022215833 54 179 4.0 14.0 0.01 0.26 0.03 81 1021.7
20171022214833 54 194 3.0 12.0 0.01 0.27 0.03 83 1021.6
20171022213833 54 173 3.0 10.0 0.01 0.28 0.03 84 1021.5
20171022212833 54 176 4.0 13.0 0.01 0.28 0.03 83 1021.6